Back to catalog

STARLINK-31477

AliveCommunicationsVLEO
NORAD 59314·PAYLOAD·🇺🇸 United States

Launched Mar 24, 2024 from Cape Canaveral Space Force Station

Loading…

Next Passes (next 24 hours)

TLE

FreshSource: CelesTrak SupGP

Epoch: Sep 14, 2026, 21:35 UTC

1 59314C 24056U   26257.89979167  .00030741  00000+0  11135-2 0  2571
2 59314  43.0019 234.6399 0001489 266.1050 263.2918 15.27561348    13

Track STARLINK-31477 in real time with AllMySat

Download on the App Store